Tracking 19562 objects as of 25-Mar-2019
HD Live streaming from Space Station
objects crossing your sky now

COSMOS 2419 (GLONASS)

Track COSMOS 2419 (GLONASS) now!
COSMOS 2419 (GLONASS) is classified as:


NORAD ID: 28915
Int'l Code: 2005-050A
Perigee: 19,092.0 km
Apogee: 19,181.2 km
Inclination: 65.8 °
Period: 675.7 minutes
Semi major axis: 25507 km
RCS: 3.2413 m2 (large)
Launch date: December 25, 2005
Source: Commonwealth of Independent States (former USSR) (CIS)
Launch site: TYURATAM MISSILE AND SPACE COMPLEX (TTMTR)
aabbcc
Your satellite tracking list
Your tracking list is empty




NASA's NSSDC Master Catalog

Two Line Element Set (TLE):
1 28915U 05050A   19083.65110912 -.00000043  00000-0  00000+0 0  9998
2 28915  65.8036  44.1736 0017486 340.7027 287.4766  2.13106961103080
Source of the keplerian elements: AFSPC